This is the latest recevied weather packets stored in our database for station/object WA7CUG. If no packets are shown the sender has not sent any weather packets the latest 10 day(s).
| Time | Temp. | Humidity | Pressure | Rain* | Wind** | Luminosity | Snow |
|---|---|---|---|---|---|---|---|
| 1777584409 | 25° C | 26% | 1020.2 hPa | 0 mm | - | 668 W/m² | - |
| 1777584105 | 26.11° C | 26% | 1020.2 hPa | 0 mm | - | 672 W/m² | - |
| 1777583804 | 25.56° C | 26% | 1020.4 hPa | 0 mm | - | 679 W/m² | - |
| 1777583499 | 24.44° C | 32% | 1020.3 hPa | 0 mm | - | 687 W/m² | - |
| 1777583194 | 24.44° C | 31% | 1020.4 hPa | 0 mm | - | 696 W/m² | - |
| 1777582889 | 24.44° C | 28% | 1020.6 hPa | 0 mm | - | 710 W/m² | - |
| 1777582587 | 23.89° C | 28% | 1020.7 hPa | 0 mm | - | 714 W/m² | - |
| 1777582282 | 24.44° C | 32% | 1020.6 hPa | 0 mm | - | 715 W/m² | - |
| 1777581980 | 24.44° C | 33% | 1020.5 hPa | 0 mm | - | 719 W/m² | - |
| 1777581675 | 25° C | 26% | 1020.7 hPa | 0 mm | - | 722 W/m² | - |
| 1777581369 | 23.33° C | 32% | 1020.8 hPa | 0 mm | - | 735 W/m² | - |
| 1777581064 | 23.89° C | 31% | 1020.8 hPa | 0 mm | - | 186 W/m² | - |
| 1777580763 | 23.89° C | 31% | 1020.8 hPa | 0 mm | - | 700 W/m² | - |
| 1777580459 | 23.33° C | 31% | 1020.9 hPa | 0 mm | - | 712 W/m² | - |
| 1777580153 | 23.33° C | 31% | 1021 hPa | 0 mm | - | 726 W/m² | - |
| 1777579851 | 23.33° C | 30% | 1021.2 hPa | 0 mm | - | 721 W/m² | - |
| 1777579549 | 23.33° C | 29% | 1021.1 hPa | 0 mm | - | 719 W/m² | - |
| 1777579244 | 23.33° C | 31% | 1021.2 hPa | 0 mm | - | 700 W/m² | - |
| 1777578940 | 23.33° C | 32% | 1021.3 hPa | 0 mm | - | 393 W/m² | - |
| 1777578636 | 22.78° C | 36% | 1021.5 hPa | 0 mm | - | 689 W/m² | - |
| 1777578335 | 22.22° C | 33% | 1021.5 hPa | 0 mm | - | 684 W/m² | - |
| 1777578032 | 22.78° C | 32% | 1021.3 hPa | 0 mm | - | 680 W/m² | - |
| 1777577727 | 22.22° C | 32% | 1021.6 hPa | 0 mm | - | 678 W/m² | - |
| 1777577424 | 22.22° C | 32% | 1021.9 hPa | 0 mm | - | 674 W/m² | - |
| 1777577121 | 22.78° C | 35% | 1021.8 hPa | 0 mm | - | 672 W/m² | - |
* Rain latest hour (hover to see other rain measurements)
** Current wind speed in m/s (hover to see current wind gust speed)